TimeCDT,TemperatureF,Dew PointF,Humidity,Sea Level PressureIn,VisibilityMPH,Wind Direction,Wind SpeedMPH,Gust SpeedMPH,PrecipitationIn,Events,Conditions,WindDirDegrees,DateUTC
12:53 AM,57.0,54.0,89,30.18,10.0,WNW,3.5,-,N/A,,Mostly Cloudy,290,2012-10-12 05:53:00
1:00 AM,57.2,53.6,88,30.18,10.0,Calm,Calm,-,N/A,,Overcast,0,2012-10-12 06:00:00
1:35 AM,57.2,55.4,94,30.18,10.0,Calm,Calm,-,N/A,,Mostly Cloudy,0,2012-10-12 06:35:00
1:53 AM,57.9,55.0,90,30.17,10.0,Calm,Calm,-,N/A,,Mostly Cloudy,0,2012-10-12 06:53:00
2:53 AM,57.2,53.6,88,30.16,10.0,Calm,Calm,-,N/A,,Scattered Clouds,0,2012-10-12 07:53:00
3:53 AM,57.9,55.0,90,30.16,10.0,Calm,Calm,-,N/A,,Clear,0,2012-10-12 08:53:00
4:53 AM,59.0,55.9,90,30.18,10.0,NNE,4.6,-,N/A,,Mostly Cloudy,20,2012-10-12 09:53:00
5:12 AM,59.0,55.4,88,30.19,10.0,NNE,4.6,-,N/A,,Overcast,20,2012-10-12 10:12:00
5:53 AM,57.0,53.1,87,30.21,10.0,NE,9.2,-,N/A,,Overcast,40,2012-10-12 10:53:00
6:53 AM,57.0,52.0,83,30.24,10.0,NE,10.4,-,N/A,,Overcast,40,2012-10-12 11:53:00
7:53 AM,57.0,53.1,87,30.25,10.0,ENE,3.5,-,N/A,,Overcast,60,2012-10-12 12:53:00
8:12 AM,57.2,53.6,88,30.25,10.0,ENE,4.6,-,N/A,,Overcast,60,2012-10-12 13:12:00
8:40 AM,57.2,53.6,88,30.26,10.0,ENE,8.1,-,N/A,,Overcast,60,2012-10-12 13:40:00
8:53 AM,57.2,53.6,88,30.27,10.0,ENE,8.1,-,N/A,,Overcast,60,2012-10-12 13:53:00
9:29 AM,57.2,53.6,88,30.29,10.0,NE,9.2,-,N/A,,Overcast,50,2012-10-12 14:29:00
9:53 AM,57.9,53.1,84,30.31,10.0,North,6.9,-,0.00,Thunderstorm,Overcast,10,2012-10-12 14:53:00
10:35 AM,57.2,53.6,88,30.33,4.0,North,5.8,-,0.04,Rain,Rain,360,2012-10-12 15:35:00
10:53 AM,57.2,53.6,88,30.33,5.0,NE,4.6,-,N/A,Rain,Light Rain,50,2012-10-12 15:53:00
11:53 AM,57.0,54.0,89,30.30,8.0,ENE,9.2,-,0.07,Rain,Light Rain,70,2012-10-12 16:53:00
12:53 PM,57.9,55.9,93,30.26,8.0,East,6.9,-,0.01,Rain,Light Rain,100,2012-10-12 17:53:00
1:09 PM,59.0,55.4,88,30.25,6.0,East,6.9,-,0.00,Rain,Light Rain,90,2012-10-12 18:09:00
1:53 PM,59.0,57.0,93,30.26,6.0,Variable,5.8,-,0.01,,Overcast,0,2012-10-12 18:53:00
2:53 PM,60.1,55.9,86,30.27,5.0,North,4.6,-,N/A,,Overcast,350,2012-10-12 19:53:00
3:53 PM,60.1,57.0,90,30.25,5.0,NNE,5.8,-,N/A,,Overcast,30,2012-10-12 20:53:00
4:53 PM,60.8,57.2,88,30.24,6.0,NE,5.8,-,N/A,,Overcast,50,2012-10-12 21:53:00
5:53 PM,61.0,57.0,87,30.22,5.0,ENE,8.1,-,N/A,,Overcast,60,2012-10-12 22:53:00
6:53 PM,61.0,57.0,87,30.23,6.0,NE,8.1,-,N/A,,Overcast,50,2012-10-12 23:53:00
7:53 PM,61.0,57.0,87,30.23,6.0,ENE,5.8,-,N/A,,Overcast,70,2012-10-13 00:53:00
8:53 PM,61.0,57.9,90,30.23,6.0,ENE,8.1,-,N/A,,Overcast,70,2012-10-13 01:53:00
9:53 PM,61.0,57.9,90,30.23,4.0,ENE,4.6,-,N/A,,Overcast,70,2012-10-13 02:53:00
10:24 PM,60.8,57.2,88,30.23,3.0,ENE,3.5,-,N/A,,Overcast,60,2012-10-13 03:24:00
10:33 PM,60.8,59.0,94,30.23,2.5,ENE,5.8,-,N/A,,Overcast,60,2012-10-13 03:33:00
10:53 PM,61.0,59.0,93,30.23,2.0,ENE,3.5,-,N/A,,Overcast,70,2012-10-13 03:53:00
11:30 PM,60.8,59.0,94,30.23,1.5,East,5.8,-,N/A,,Overcast,80,2012-10-13 04:30:00
11:53 PM,60.1,59.0,96,30.22,1.0,East,3.5,-,N/A,,Mist,90,2012-10-13 04:53:00